KB4ID Weather Reports


Display with metric or nautical units.
time (UTC)temp
F
wind
direction
speed
MPH
gust
MPH
rain 1hr
in
rain 24hr
in
rain mn
in
humidity
%
barometer
mb
20200814103405 74 204 0.0 0.0 0.00 0.01 0.00 98 1012.8
20200814102405 74 204 0.0 0.0 0.00 0.01 0.00 98 1012.8
20200814100408 74 204 0.0 0.0 0.00 0.01 0.00 98 1012.8
20200814093406 74 203 0.0 0.0 0.00 0.01 0.00 98 1012.8
20200814091404 74 203 0.0 0.0 0.00 0.01 0.00 99 1012.8
20200814085404 73 204 0.0 0.0 0.00 0.01 0.00 99 1012.8
20200814084405 73 204 0.0 0.0 0.00 0.01 0.00 99 1012.8
20200814083405 73 203 0.0 0.0 0.00 0.01 0.00 99 1012.8
20200814080405 74 204 0.0 0.0 0.00 0.01 0.00 98 1012.8
20200814075404 74 204 0.0 0.0 0.00 0.01 0.00 99 1012.8
20200814073406 73 204 0.0 0.0 0.00 0.01 0.00 99 1013.2
20200814072404 73 203 0.0 0.0 0.00 0.01 0.00 99 1013.5
20200814071406 73 204 0.0 0.0 0.00 0.01 0.00 98 1013.5
20200814070406 73 203 0.0 0.0 0.00 0.01 0.00 98 1013.5
20200814063404 73 204 0.0 0.0 0.00 0.01 0.00 97 1013.2
20200814061404 73 204 0.0 0.0 0.00 0.01 0.00 98 1013.5
20200814060410 73 204 0.0 0.0 0.00 0.01 0.00 98 1013.5
20200814055408 73 204 0.0 0.0 0.00 0.01 0.00 98 1013.2
20200814054406 73 203 0.0 0.0 0.00 0.01 0.00 97 1013.5
20200814053406 73 204 0.0 0.0 0.00 0.01 0.00 97 1013.5
20200814052406 73 204 0.0 0.0 0.00 0.01 0.00 97 1013.5
20200814050409 73 204 0.0 0.0 0.00 0.01 0.00 97 1013.5
20200814045407 73 203 0.0 0.0 0.00 0.01 0.00 97 1013.5
20200814044405 73 204 0.0 0.0 0.00 0.01 0.00 96 1013.5
20200814043406 73 203 0.0 0.0 0.00 0.01 0.00 96 1013.8
20200814041405 73 204 0.0 0.0 0.00 0.01 0.00 96 1014.2
20200814035406 74 203 0.0 0.0 0.00 0.01 0.01 95 1013.8
20200814032406 74 204 0.0 0.0 0.00 0.01 0.01 95 1014.2
20200814031406 74 204 0.0 0.0 0.00 0.01 0.01 94 1014.2
20200814025405 75 204 0.0 0.0 0.00 0.01 0.01 95 1014.5
20200814022405 75 203 0.0 0.0 0.00 0.01 0.01 93 1014.2
20200814020406 75 203 0.0 0.0 0.00 0.01 0.01 92 1014.2
20200814015407 76 204 0.0 0.0 0.00 0.01 0.01 92 1014.2
20200814013406 76 204 0.0 0.0 0.00 0.01 0.01 92 1014.2
20200814011405 76 204 0.0 0.0 0.00 0.01 0.01 91 1014.2
20200814005406 77 204 0.0 0.0 0.00 0.01 0.01 89 1013.5
20200814004406 77 204 0.0 0.0 0.00 0.01 0.01 89 1013.5
20200813223405 81 188 0.0 0.0 0.00 0.01 0.01 86 1012.1
20200813220406 83 188 0.0 0.0 0.00 0.01 0.01 81 1012.5
20200813213405 84 196 0.0 0.0 0.00 0.01 0.01 85 1012.1
20200813211406 83 196 0.0 0.0 0.00 0.01 0.01 85 1012.1
20200813203406 83 196 0.0 0.0 0.00 0.01 0.01 85 1012.5
20200813202405 83 196 0.0 0.0 0.00 0.01 0.01 83 1012.5
20200813195406 85 196 0.0 0.0 0.00 0.01 0.01 80 1012.8
20200813192449 84 196 0.0 0.0 0.01 0.01 0.01 87 1012.8
20200813185405 88 195 0.0 0.0 0.01 0.01 0.01 73 1013.2
20200813180406 86 254 0.0 0.0 0.00 0.00 0.00 76 1014.2
20200813175406 86 254 0.0 0.0 0.00 0.00 0.00 74 1014.2
20200813174406 87 254 0.0 0.0 0.00 0.00 0.00 73 1014.2
20200813170406 86 214 0.0 0.0 0.00 0.00 0.00 77 1014.8
20200813165406 86 215 0.0 0.0 0.00 0.00 0.00 75 1014.8
20200813164408 87 215 0.0 0.0 0.00 0.00 0.00 73 1015.2
20200813163406 86 242 0.0 1.0 0.00 0.00 0.00 75 1015.2
20200813162405 86 209 0.0 0.0 0.00 0.00 0.00 72 1015.2
20200813161406 85 234 0.0 0.0 0.00 0.00 0.00 80 1015.2
20200813154405 82 244 0.0 0.0 0.00 0.00 0.00 84 1015.2
20200813153405 82 217 0.0 0.0 0.00 0.00 0.00 84 1015.2
20200813151405 81 217 0.0 0.0 0.00 0.00 0.00 87 1015.5
20200813150405 80 217 0.0 0.0 0.00 0.00 0.00 90 1015.2
20200813145407 80 217 0.0 0.0 0.00 0.00 0.00 90 1015.5
20200813141404 79 176 0.0 0.0 0.00 0.00 0.00 91 1015.5
20200813135405 78 176 0.0 0.0 0.00 0.00 0.00 93 1015.5
20200813133405 77 236 0.0 0.0 0.00 0.00 0.00 96 1015.5
20200813132404 76 236 0.0 0.0 0.00 0.00 0.00 98 1015.2
20200813130404 75 236 0.0 0.0 0.00 0.00 0.00 100 1015.5
20200813123405 74 290 0.0 0.0 0.00 0.00 0.00 100 1015.2
20200813122405 74 290 0.0 0.0 0.00 0.00 0.00 100 1015.2
20200813121405 74 290 0.0 0.0 0.00 0.00 0.00 100 1015.2
20200813120405 74 290 0.0 0.0 0.00 0.00 0.00 100 1015.2
20200813112405 74 290 0.0 0.0 0.00 0.00 0.00 100 1015.5